{"data":{"norad_id":58130,"epoch":"2026-05-25T02:43:40.244736Z","epoch_age_seconds":64900,"freshness":"FRESH","line1":"1 58130U 23162N   26145.11366024  .00000648  00000+0  33053-4 0  9997","line2":"2 58130  43.0018  57.6075 0000976 271.7997  88.2743 15.27581848144032","mean_motion":15.27581848,"eccentricity":9.76e-5,"inclination_deg":43.0018,"raan_deg":57.6075,"arg_perigee_deg":271.7997,"mean_anomaly_deg":88.2743,"bstar":3.3053e-5,"rev_number":14403,"period_min":94.266634673967,"perigee_km":482.37391124552,"apogee_km":483.71321369131,"semimajor_km":6861.1805624684,"source":"CELESTRAK","updated_at":"2026-05-25T13:38:18.533129Z"}}